Back to catalog

STARLINK-32448

AliveCommunicationsVLEO
NORAD 62206·PAYLOAD·🇺🇸 United States

Launched Dec 4, 2024 from Cape Canaveral Space Force Station

Loading…

Next Passes (next 24 hours)

TLE

FreshSource: CelesTrak SupGP

Epoch: Sep 15, 2026, 03:03 UTC

1 62206C 24229Q   26258.12756944 -.00005899  00000+0 -21364-3 0  2585
2 62206  43.0005 280.5435 0001196 266.0269 222.9282 15.27586884    17

Track STARLINK-32448 in real time with AllMySat

Download on the App Store